[[{"header":{"parameterUnit":"m.s-1","parameterCategory":1,"la1":30.2991,"la2":30.254,"lo1":-89.0895,"lo2":-89.0444,"dy":0.0017,"dx":0.0017,"nx":28,"ny":28,"refTime":"2024-04-11T21:00:00:Z","depth":0,"parameterNumber":2,"parameterNumberName":"U-component_of_WINDS"},"data":[0,0,0,0,0,0,0,0,0,0,0,0,0,0,0,0,0,0,0,0,0,0,0,0,0,0,0,0,0,0,0,0,0,0,0,0,0,0,0,0,0,0,0,0,0,0,0,0,0,0,0,0,0,0,0,0,0,0,1.7756,1.7757,0,1.7826,1.7827,1.7828,1.7814,1.7813,1.7811,1.781,1.7883,1.7886,1.7889,0,0,0,0,0,0,0,0,0,0,0,0,0,1.7612,1.7615,1.7756,1.7757,1.7758,1.7826,1.7827,1.7828,1.7814,1.7813,1.7811,1.781,1.7882,1.7886,1.789,0,0,0,0,0,0,0,0,0,0,0,0,0,1.7678,1.7616,1.7756,1.7759,1.776,1.7826,1.7827,1.7828,1.7814,1.7813,1.7811,1.7809,1.7881,1.7885,1.789,1.7957,0,0,1.7904,1.7906,0,0,0,0,0,0,0,0,1.7674,1.7683,1.7758,1.7759,1.776,1.7809,1.7803,1.7872,1.7815,1.7794,1.781,1.7808,1.786,1.7866,1.7884,1.7961,1.7964,1.7905,1.7908,1.791,1.7911,0,0,0,0,0,0,0,1.767,1.768,1.7784,1.7759,1.776,1.7758,1.7765,1.7816,1.7837,1.7796,1.7795,1.7803,1.786,1.7879,1.7885,1.7965,1.7905,1.7909,1.7912,1.7914,1.8103,1.8105,0,0,0,0,0,0,1.7664,1.7676,1.7781,1.7786,1.7711,1.7762,1.777,1.7795,1.7836,1.7841,1.7805,1.7802,1.7872,1.788,1.7888,1.7971,1.791,1.7914,1.7917,1.8101,1.8104,1.8106,0,0,0,0,0,0,1.7661,1.7673,1.7779,1.7731,1.7744,1.7766,1.7795,1.7798,1.7817,1.7843,1.7847,1.782,1.7871,1.7881,1.7941,1.7973,1.7916,1.792,1.8098,1.8102,1.8105,1.8137,0,0,0,0,0,0,1.7657,1.7672,1.7697,1.7732,1.7747,1.783,1.7797,1.7801,1.7825,1.7822,1.7859,1.7863,1.787,1.7934,1.7945,1.7979,1.7924,1.8096,1.81,1.8104,1.8133,1.8141,1.8147,0,0,0,0,0,1.7651,1.7703,1.7699,1.7711,1.7778,1.7831,1.784,1.7847,1.7827,1.7853,1.7871,1.7862,1.7968,1.794,1.7953,1.7988,1.8094,1.8099,1.8104,1.813,1.8139,1.8147,0,0,0,0,0,0,1.7672,1.7708,1.7703,1.7767,1.7796,1.7829,1.7862,1.7857,1.7893,1.7889,1.7897,1.7905,1.7966,1.7983,1.7951,1.8057,1.8028,1.8036,1.8043,1.8053,1.806,1.8055,1.7928,0,0,0,0,0,1.7684,1.7723,1.7752,1.7806,1.7821,1.7839,1.7862,1.7866,1.7896,1.7909,1.793,1.7961,1.8002,1.8028,1.8066,1.8135,1.8144,1.8166,1.8173,1.8179,1.8186,1.8226,1.8236,1.8123,1.8122,1.8122,0,0,1.7709,1.7733,1.7758,1.7811,1.7834,1.7876,1.785,1.7894,1.7926,1.7916,1.7973,1.7991,1.8025,1.809,1.812,1.8106,1.822,1.8186,1.819,1.8194,1.8232,1.8243,1.8252,1.8126,1.8125,1.8125,0,0,1.7776,1.7798,1.7846,1.787,1.7905,1.7917,1.7929,1.7963,1.7974,1.8032,1.8026,1.8064,1.8133,1.8158,1.8181,1.826,1.8253,1.8272,1.831,1.8349,1.8358,1.8366,1.8396,1.8406,1.8279,1.8279,1.8279,0,1.7803,1.7865,1.7871,1.7917,1.7942,1.7935,1.7985,1.8008,1.8054,1.8072,1.8056,1.8144,1.8166,1.8238,1.8258,1.8275,1.829,1.8268,1.8356,1.8364,1.8372,1.84,1.8411,1.8281,1.8281,1.8281,1.828,0,1.7897,1.794,1.7975,1.802,1.8048,1.8096,1.8111,1.8139,1.814,1.8154,1.8215,1.8242,1.8287,1.8304,1.8306,1.8377,1.8368,1.8354,1.8325,1.8385,1.8412,1.8422,1.8284,1.8283,1.8283,1.8282,0,0,1.7978,1.8027,1.804,1.8062,1.8101,1.8135,1.8183,1.8227,1.8252,1.8284,1.8326,1.8385,1.8374,1.8399,1.8403,1.8437,1.85,1.8419,1.842,1.8434,1.8582,1.8593,1.8605,1.8496,1.8498,1.85,1.858,0,1.805,1.8134,1.8142,1.8218,1.8259,1.8254,1.8296,1.8326,1.8341,1.8378,1.8395,1.8438,1.8418,1.8433,1.8466,1.8485,1.853,1.848,1.8536,1.8538,1.8528,1.8619,1.863,1.8704,1.859,1.8592,1.8593,0,1.8144,1.818,1.826,1.8296,1.8313,1.8351,1.8393,1.8429,1.8463,1.8471,1.85,1.8501,1.8552,1.8521,1.8593,1.8558,1.8582,1.8595,1.8598,1.8604,1.8569,1.8629,1.8728,1.8739,1.861,1.8608,1.8607,0,1.8197,1.8265,1.8323,1.8341,1.8383,1.841,1.8429,1.8461,1.8488,1.8525,1.8543,1.8585,1.8609,1.8642,1.8655,1.8631,1.8726,1.8696,1.8736,1.8736,1.8756,1.8755,1.8862,1.877,1.877,1.877,1.877,0,1.8277,1.8326,1.8347,1.8382,1.8438,1.8448,1.8504,1.8522,1.8551,1.859,1.8589,1.8626,1.864,1.868,1.869,1.8749,1.8759,1.8769,1.8771,1.8769,1.8768,1.8785,1.8781,1.8773,1.8772,1.8772,1.8771,0,1.8345,1.8361,1.8423,1.8459,1.8469,1.8509,1.854,1.8575,1.8589,1.864,1.8652,1.8676,1.8723,1.8739,1.8796,1.8803,1.8872,1.8869,1.886,1.8861,1.89,1.8897,1.9022,1.904,1.8936,1.8937,1.8937,0,1.8395,1.8433,1.8473,1.85,1.852,1.8562,1.859,1.8601,1.863,1.8673,1.8703,1.875,1.8788,1.8864,1.8887,1.8931,1.8931,1.8972,1.8937,1.8935,1.8933,1.8931,1.8935,1.8978,1.8979,1.898,1.8981,0,1.8483,1.8489,1.8528,1.8571,1.8604,1.8638,1.8671,1.8693,1.871,1.8743,1.8791,1.8821,1.888,1.8928,1.8973,1.8994,1.8991,1.8991,1.9003,1.9002,1.8996,1.9001,1.8879,1.8988,1.8988,1.8987,1.8987,1.8986,1.8544,1.8578,1.8613,1.8657,1.8683,1.8715,1.875,1.877,1.881,1.8859,1.8864,1.8916,1.8951,1.9012,1.9036,1.9078,1.9066,1.9083,1.9087,1.9092,1.9095,1.8989,1.9086,1.9086,1.9086,1.9085,1.9085,0,1.8633,1.8655,1.8696,1.8742,1.8778,1.8772,1.8809,1.8839,1.8885,1.8918,1.8956,1.9013,1.9059,1.9086,1.9133,1.9162,1.9162,1.9174,1.9172,1.9177,1.9102,1.9088,1.9173,1.9173,1.9173,1.9173,1.9173,1.9173,1.8683,1.8741,1.8752,1.8824,1.8846,1.8898,1.892,1.8949,1.8976,1.9039,1.9078,1.9095,1.9126,1.9175,1.9218,1.9225,1.9243,1.9256,1.9262,1.9191,1.9182,1.9174,1.916,1.926,1.926,1.9334,1.9335,1.9335]},{"header":{"parameterUnit":"m.s-1","parameterCategory":1,"la1":30.2991,"la2":30.254,"lo1":-89.0895,"lo2":-89.0444,"dy":0.0017,"dx":0.0017,"nx":28,"ny":28,"refTime":"2024-04-11T21:00:00:Z","depth":0,"parameterNumber":3,"parameterNumberName":"V-component_of_WINDS"},"data":[0,0,0,0,0,0,0,0,0,0,0,0,0,0,0,0,0,0,0,0,0,0,0,0,0,0,0,0,0,0,0,0,0,0,0,0,0,0,0,0,0,0,0,0,0,0,0,0,0,0,0,0,0,0,0,0,0,0,-4.5035,-4.5036,0,-4.5116,-4.5117,-4.5118,-4.5127,-4.5126,-4.5126,-4.5125,-4.5205,-4.5208,-4.5211,0,0,0,0,0,0,0,0,0,0,0,0,0,-4.4887,-4.4889,-4.5035,-4.5036,-4.5037,-4.5116,-4.5117,-4.5118,-4.5127,-4.5126,-4.5125,-4.5125,-4.5204,-4.5208,-4.5211,0,0,0,0,0,0,0,0,0,0,0,0,0,-4.4958,-4.489,-4.5035,-4.5051,-4.5053,-4.5116,-4.5117,-4.5119,-4.5128,-4.5126,-4.5125,-4.5124,-4.5203,-4.5207,-4.5212,-4.5263,0,0,-4.5225,-4.5227,0,0,0,0,0,0,0,0,-4.4954,-4.4963,-4.5048,-4.505,-4.5053,-4.5111,-4.5095,-4.5167,-4.5128,-4.5099,-4.5125,-4.5123,-4.5175,-4.5181,-4.5199,-4.5266,-4.527,-4.5225,-4.5228,-4.523,-4.5231,0,0,0,0,0,0,0,-4.4949,-4.496,-4.5067,-4.5049,-4.5052,-4.5054,-4.5063,-4.5108,-4.5143,-4.5102,-4.5103,-4.5112,-4.5176,-4.5195,-4.5201,-4.5271,-4.5225,-4.5229,-4.5232,-4.5233,-4.5387,-4.5388,0,0,0,0,0,0,-4.4941,-4.4956,-4.5065,-4.507,-4.4999,-4.5058,-4.5068,-4.5093,-4.5142,-4.5149,-4.5113,-4.5112,-4.5188,-4.5196,-4.5204,-4.5268,-4.523,-4.5234,-4.5236,-4.5385,-4.5387,-4.5389,0,0,0,0,0,0,-4.4938,-4.4951,-4.5061,-4.5013,-4.5027,-4.5062,-4.509,-4.5095,-4.5115,-4.5151,-4.5157,-4.5127,-4.5187,-4.5198,-4.5249,-4.5271,-4.5236,-4.524,-4.5384,-4.5386,-4.5388,-4.5397,0,0,0,0,0,0,-4.4934,-4.495,-4.4969,-4.5013,-4.503,-4.5105,-4.5092,-4.5098,-4.5122,-4.5122,-4.5165,-4.5171,-4.5187,-4.5242,-4.5253,-4.5277,-4.5243,-4.5382,-4.5385,-4.5387,-4.5395,-4.5399,-4.5403,0,0,0,0,0,-4.4928,-4.4967,-4.497,-4.4983,-4.5055,-4.5106,-4.5116,-4.5135,-4.5124,-4.5144,-4.5168,-4.5169,-4.5267,-4.5247,-4.526,-4.5285,-4.538,-4.5384,-4.5387,-4.5393,-4.5398,-4.5403,0,0,0,0,0,0,-4.4924,-4.4973,-4.4977,-4.5032,-4.5065,-4.5108,-4.5134,-4.5139,-4.5175,-4.5173,-4.5194,-4.5204,-4.5254,-4.5275,-4.5252,-4.5338,-4.5323,-4.5329,-4.5323,-4.5328,-4.5332,-4.5327,-4.5247,0,0,0,0,0,-4.4929,-4.4967,-4.5008,-4.5053,-4.5069,-4.5099,-4.5122,-4.5134,-4.5168,-4.5182,-4.5209,-4.5243,-4.5281,-4.5306,-4.5343,-4.5398,-4.5408,-4.5421,-4.5425,-4.5429,-4.5433,-4.5466,-4.5473,-4.54,-4.54,-4.54,0,0,-4.4941,-4.4973,-4.4995,-4.5053,-4.508,-4.5119,-4.511,-4.5151,-4.5181,-4.5188,-4.5239,-4.526,-4.5298,-4.5352,-4.5377,-4.5371,-4.5456,-4.5433,-4.5435,-4.5438,-4.547,-4.5477,-4.5483,-4.5402,-4.5402,-4.5401,0,0,-4.4982,-4.5009,-4.505,-4.5078,-4.512,-4.514,-4.515,-4.5193,-4.5208,-4.5259,-4.5266,-4.5301,-4.5366,-4.5394,-4.5416,-4.5471,-4.5474,-4.5482,-4.5503,-4.5535,-4.5541,-4.5546,-4.5567,-4.5574,-4.5487,-4.5487,-4.5487,0,-4.499,-4.505,-4.507,-4.5112,-4.5138,-4.5148,-4.519,-4.5216,-4.5267,-4.5285,-4.5277,-4.5361,-4.5387,-4.5448,-4.5462,-4.548,-4.5492,-4.5477,-4.5538,-4.5544,-4.5549,-4.5569,-4.5577,-4.5488,-4.5488,-4.5488,-4.5487,0,-4.5059,-4.5101,-4.5129,-4.518,-4.5209,-4.525,-4.5277,-4.5304,-4.5314,-4.5334,-4.5387,-4.542,-4.5465,-4.548,-4.5489,-4.5544,-4.5538,-4.5534,-4.5519,-4.5557,-4.5576,-4.5583,-4.5489,-4.5489,-4.5488,-4.5488,0,0,-4.5098,-4.5163,-4.5173,-4.5197,-4.5245,-4.5277,-4.532,-4.5365,-4.5388,-4.5423,-4.546,-4.5516,-4.5513,-4.5539,-4.5552,-4.5579,-4.5622,-4.5572,-4.5573,-4.5581,-4.5686,-4.569,-4.5698,-4.5625,-4.5626,-4.5627,-4.5683,0,-4.5146,-4.5223,-4.5244,-4.5309,-4.5348,-4.536,-4.5397,-4.543,-4.5451,-4.5487,-4.551,-4.555,-4.5542,-4.5559,-4.5586,-4.5611,-4.5644,-4.5607,-4.5659,-4.5661,-4.565,-4.5708,-4.5711,-4.5762,-4.5691,-4.5692,-4.5693,0,-4.5211,-4.525,-4.532,-4.5365,-4.5382,-4.5415,-4.546,-4.5494,-4.5533,-4.5546,-4.5576,-4.5587,-4.5632,-4.5615,-4.5678,-4.5653,-4.5675,-4.5691,-4.5693,-4.5699,-4.5679,-4.5716,-4.5779,-4.5787,-4.5705,-4.5704,-4.5703,0,-4.5235,-4.5304,-4.5356,-4.5376,-4.5429,-4.5453,-4.5476,-4.5514,-4.554,-4.5579,-4.5597,-4.5639,-4.5663,-4.5696,-4.5718,-4.5703,-4.578,-4.5764,-4.5792,-4.5792,-4.5808,-4.5807,-4.5876,-4.5821,-4.5821,-4.5821,-4.5821,0,-4.5286,-4.5328,-4.5367,-4.5399,-4.5447,-4.5471,-4.5518,-4.5541,-4.5575,-4.5612,-4.5624,-4.5657,-4.5684,-4.5722,-4.5739,-4.579,-4.58,-4.5812,-4.5816,-4.5812,-4.581,-4.5827,-4.5824,-4.5823,-4.5822,-4.5822,-4.5822,0,-4.532,-4.5348,-4.5405,-4.5452,-4.5465,-4.5498,-4.5538,-4.557,-4.5592,-4.5638,-4.565,-4.5684,-4.5729,-4.5755,-4.5811,-4.5823,-4.5879,-4.5881,-4.5867,-4.5869,-4.5897,-4.5894,-4.598,-4.5993,-4.5928,-4.5929,-4.5929,0,-4.5351,-4.5385,-4.5436,-4.5462,-4.5486,-4.5527,-4.5556,-4.558,-4.5609,-4.5657,-4.5683,-4.5729,-4.5767,-4.5839,-4.5869,-4.5912,-4.5916,-4.5943,-4.5923,-4.5918,-4.5918,-4.5916,-4.592,-4.5947,-4.5947,-4.5948,-4.5948,0,-4.5404,-4.5417,-4.5457,-4.5503,-4.5537,-4.5574,-4.561,-4.5631,-4.5662,-4.5694,-4.5741,-4.5771,-4.583,-4.5876,-4.5922,-4.5946,-4.5953,-4.5955,-4.5964,-4.596,-4.595,-4.5957,-4.5878,-4.5952,-4.5952,-4.5952,-4.5951,-4.5951,-4.5439,-4.547,-4.5512,-4.5557,-4.5587,-4.5622,-4.5655,-4.5682,-4.5722,-4.5773,-4.5785,-4.5835,-4.5874,-4.5938,-4.5963,-4.6002,-4.5997,-4.601,-4.6014,-4.6017,-4.6019,-4.5944,-4.6011,-4.6011,-4.601,-4.601,-4.601,0,-4.5494,-4.5522,-4.5563,-4.5615,-4.5651,-4.5656,-4.5697,-4.5726,-4.5771,-4.5808,-4.5846,-4.5901,-4.5947,-4.5981,-4.6027,-4.6053,-4.6057,-4.6064,-4.6063,-4.6068,-4.6019,-4.6008,-4.606,-4.606,-4.606,-4.606,-4.606,-4.606,-4.5526,-4.558,-4.5598,-4.5667,-4.5695,-4.5745,-4.5768,-4.5801,-4.5831,-4.5892,-4.5931,-4.5953,-4.5989,-4.6039,-4.6081,-4.609,-4.6107,-4.6114,-4.6123,-4.6077,-4.6072,-4.6067,-4.6056,-4.6117,-4.6117,-4.6169,-4.617,-4.617]}]]